| time (UTC) | temp F | wind direction | speed MPH | gust MPH | rain 1hr in | rain 24hr in | rain mn in | humidity % | barometer mb |
| 20260506185100 | 59 | 244 | 0.0 | 6.0 | 0.00 | 1.31 | 1.11 | 65 | 1009.4 |
| 20260506184558 | 59 | 243 | 2.0 | 7.0 | 0.00 | 1.31 | 1.11 | 65 | 1009.4 |
| 20260506184254 | 59 | 169 | 0.0 | 12.0 | 0.00 | 1.32 | 1.11 | 65 | 1009.4 |
| 20260506184122 | 59 | 234 | 5.0 | 9.0 | 0.00 | 1.32 | 1.11 | 65 | 1009.4 |
| 20260506183057 | 59 | 226 | 5.0 | 12.0 | 0.00 | 1.32 | 1.11 | 65 | 1009.3 |
| 20260506182557 | 59 | 199 | 2.0 | 6.0 | 0.00 | 1.32 | 1.11 | 65 | 1009.3 |
| 20260506182055 | 58 | 231 | 0.0 | 4.0 | 0.00 | 1.32 | 1.11 | 65 | 1009.4 |
| 20260506181554 | 58 | 233 | 3.0 | 5.0 | 0.00 | 1.33 | 1.11 | 65 | 1009.4 |
| 20260506181054 | 58 | 223 | 3.0 | 5.0 | 0.00 | 1.33 | 1.11 | 65 | 1009.4 |
| 20260506180551 | 58 | 206 | 2.0 | 6.0 | 0.01 | 1.33 | 1.11 | 65 | 1009.4 |
| 20260506180048 | 58 | 165 | 4.0 | 6.0 | 0.01 | 1.34 | 1.11 | 65 | 1009.4 |
| 20260506175550 | 58 | 189 | 3.0 | 6.0 | 0.01 | 1.33 | 1.11 | 65 | 1009.4 |
| 20260506175049 | 57 | 118 | 0.0 | 3.0 | 0.01 | 1.34 | 1.11 | 65 | 1009.3 |
| 20260506174551 | 57 | 243 | 0.0 | 0.0 | 0.01 | 1.35 | 1.11 | 65 | 1009.4 |
| 20260506174048 | 57 | 243 | 0.0 | 3.0 | 0.01 | 1.35 | 1.11 | 65 | 1009.3 |
| 20260506173548 | 57 | 243 | 0.0 | 3.0 | 0.02 | 1.35 | 1.11 | 65 | 1009.3 |
| 20260506173048 | 57 | 243 | 1.0 | 3.0 | 0.06 | 1.35 | 1.11 | 65 | 1009.1 |
| 20260506172827 | 57 | 243 | 2.0 | 4.0 | 0.07 | 1.36 | 1.11 | 66 | 1009.1 |
| 20260506172624 | 57 | 243 | 1.0 | 4.0 | 0.06 | 1.35 | 1.11 | 66 | 1009.2 |
| 20260506171542 | 56 | 244 | 3.0 | 4.0 | 0.12 | 1.36 | 1.11 | 66 | 1009.1 |
| 20260506171037 | 56 | 244 | 2.0 | 3.0 | 0.28 | 1.37 | 1.11 | 66 | 1009.1 |
| 20260506170534 | 56 | 244 | 1.0 | 2.0 | 0.29 | 1.37 | 1.10 | 66 | 1008.9 |
| 20260506170040 | 56 | 244 | 2.0 | 5.0 | 0.30 | 1.38 | 1.10 | 66 | 1008.9 |
| 20260506165925 | 56 | 276 | 2.0 | 10.0 | 0.31 | 1.07 | 1.10 | 66 | 1008.8 |
| 20260506165913 | 56 | 241 | 5.0 | 11.0 | 0.33 | 1.07 | 1.10 | 66 | 1009.0 |
| 20260506165637 | 56 | 245 | 1.0 | 6.0 | 0.31 | 1.07 | 1.10 | 66 | 1009.0 |
| 20260506164029 | 57 | 252 | 5.0 | 13.0 | 0.34 | 1.07 | 1.10 | 66 | 1008.9 |
| 20260506163531 | 57 | 255 | 9.0 | 13.0 | 0.37 | 1.08 | 1.09 | 66 | 1009.0 |
| 20260506163032 | 56 | 221 | 6.0 | 17.0 | 0.36 | 1.08 | 1.05 | 67 | 1008.9 |
| 20260506162525 | 57 | 220 | 5.0 | 17.0 | 0.37 | 1.08 | 1.05 | 67 | 1009.0 |
| 20260506162201 | 59 | 278 | 6.0 | 7.0 | 0.31 | 1.08 | 0.95 | 66 | 1008.9 |
| 20260506162051 | 57 | 319 | 2.0 | 7.0 | 0.37 | 1.08 | 1.04 | 68 | 1008.8 |
| 20260506161023 | 59 | 180 | 4.0 | 10.0 | 0.17 | 1.08 | 0.83 | 65 | 1009.0 |
| 20260506160521 | 59 | 168 | 4.0 | 10.0 | 0.15 | 1.08 | 0.81 | 66 | 1008.8 |
| 20260506160022 | 59 | 230 | 4.0 | 7.0 | 0.13 | 1.08 | 0.80 | 66 | 1008.9 |
| 20260506155521 | 59 | 175 | 4.0 | 7.0 | 0.13 | 0.94 | 0.80 | 66 | 1008.8 |
| 20260506155025 | 59 | 147 | 3.0 | 5.0 | 0.13 | 0.94 | 0.79 | 66 | 1009.0 |
| 20260506154706 | 59 | 254 | 1.0 | 10.0 | 0.10 | 0.94 | 0.76 | 66 | 1008.8 |
| 20260506154540 | 59 | 254 | 1.0 | 10.0 | 0.11 | 0.94 | 0.77 | 66 | 1008.9 |
| 20260506153519 | 60 | 76 | 4.0 | 10.0 | 0.06 | 0.94 | 0.71 | 66 | 1008.9 |
| 20260506153020 | 60 | 125 | 4.0 | 10.0 | 0.02 | 0.94 | 0.69 | 66 | 1009.0 |
| 20260506152520 | 60 | 93 | 2.0 | 10.0 | 0.02 | 0.94 | 0.68 | 66 | 1008.9 |
| 20260506152021 | 60 | 38 | 6.0 | 11.0 | 0.01 | 0.94 | 0.67 | 66 | 1008.9 |
| 20260506151519 | 60 | 152 | 3.0 | 11.0 | 0.00 | 0.95 | 0.67 | 66 | 1009.1 |
| 20260506151015 | 60 | 100 | 6.0 | 10.0 | 0.00 | 0.95 | 0.66 | 66 | 1009.0 |
| 20260506150643 | 60 | 59 | 5.0 | 10.0 | 0.00 | 0.95 | 0.66 | 66 | 1009.0 |
| 20260506150536 | 60 | 80 | 4.0 | 10.0 | 0.00 | 0.95 | 0.66 | 66 | 1009.0 |
| 20260506145509 | 60 | 149 | 1.0 | 4.0 | 0.00 | 0.96 | 0.66 | 66 | 1009.1 |
| 20260506145011 | 59 | 152 | 0.0 | 6.0 | 0.01 | 0.98 | 0.66 | 65 | 1009.2 |
| 20260506144721 | 59 | 71 | 2.0 | 6.0 | 0.02 | 1.02 | 0.66 | 66 | 1009.3 |
| 20260506144539 | 59 | 152 | 2.0 | 6.0 | 0.02 | 0.99 | 0.66 | 66 | 1009.2 |
| 20260506143507 | 59 | 319 | 1.0 | 6.0 | 0.02 | 1.04 | 0.66 | 66 | 1009.4 |
| 20260506143008 | 59 | 220 | 1.0 | 9.0 | 0.02 | 1.04 | 0.66 | 66 | 1009.5 |
| 20260506142714 | 59 | 110 | 4.0 | 10.0 | 0.05 | 1.05 | 0.66 | 65 | 1009.4 |
| 20260506142544 | 59 | 107 | 4.0 | 9.0 | 0.04 | 1.04 | 0.66 | 66 | 1009.5 |
| 20260506141428 | 59 | 212 | 6.0 | 11.0 | 0.24 | 1.05 | 0.66 | 65 | 1009.5 |
| 20260506140551 | 59 | 193 | 6.0 | 9.0 | 0.31 | 1.05 | 0.66 | 66 | 1009.6 |
| 20260506140250 | 58 | 214 | 2.0 | 6.0 | 0.37 | 0.71 | 0.65 | 66 | 1009.6 |
| 20260506140116 | 59 | 224 | 3.0 | 6.0 | 0.34 | 1.06 | 0.66 | 66 | 1009.6 |
| 20260506135049 | 58 | 186 | 2.0 | 9.0 | 0.37 | 0.71 | 0.65 | 66 | 1009.7 |
| 20260506134551 | 58 | 190 | 3.0 | 9.0 | 0.36 | 0.72 | 0.65 | 66 | 1009.7 |
| 20260506134047 | 58 | 130 | 3.0 | 10.0 | 0.36 | 0.72 | 0.65 | 66 | 1009.8 |
| 20260506133545 | 58 | 179 | 5.0 | 13.0 | 0.36 | 0.72 | 0.65 | 67 | 1009.8 |
| 20260506133049 | 58 | 206 | 2.0 | 13.0 | 0.35 | 0.72 | 0.64 | 67 | 1009.7 |
| 20260506132545 | 58 | 180 | 5.0 | 18.0 | 0.34 | 0.73 | 0.62 | 67 | 1009.8 |
| 20260506132045 | 58 | 216 | 6.0 | 20.0 | 0.33 | 0.74 | 0.61 | 68 | 1009.8 |
| 20260506131548 | 58 | 178 | 13.0 | 20.0 | 0.31 | 0.74 | 0.56 | 69 | 1009.9 |
| 20260506131258 | 59 | 152 | 7.0 | 10.0 | 0.07 | 0.76 | 0.35 | 69 | 1010.0 |
| 20260506131117 | 59 | 157 | 5.0 | 12.0 | 0.13 | 0.75 | 0.41 | 68 | 1009.9 |
| 20260506130043 | 60 | 165 | 5.0 | 11.0 | 0.05 | 0.76 | 0.31 | 69 | 1009.9 |
| 20260506125541 | 60 | 207 | 6.0 | 11.0 | 0.02 | 0.72 | 0.29 | 68 | 1009.8 |
| 20260506125037 | 60 | 214 | 5.0 | 11.0 | 0.01 | 0.73 | 0.28 | 68 | 1009.8 |
| 20260506124539 | 60 | 214 | 7.0 | 11.0 | 0.01 | 0.74 | 0.28 | 68 | 1009.8 |
| 20260506124040 | 60 | 188 | 7.0 | 14.0 | 0.01 | 0.74 | 0.28 | 68 | 1009.8 |
| 20260506123539 | 60 | 190 | 6.0 | 14.0 | 0.02 | 0.74 | 0.28 | 68 | 1009.7 |
| 20260506123036 | 60 | 252 | 6.0 | 12.0 | 0.02 | 0.74 | 0.28 | 68 | 1009.8 |
| 20260506122534 | 60 | 176 | 6.0 | 10.0 | 0.02 | 0.74 | 0.28 | 68 | 1009.8 |
| 20260506122035 | 60 | 186 | 3.0 | 12.0 | 0.02 | 0.74 | 0.28 | 67 | 1009.7 |
| 20260506121535 | 60 | 85 | 5.0 | 12.0 | 0.02 | 0.74 | 0.28 | 67 | 1009.7 |
| 20260506121032 | 60 | 202 | 4.0 | 9.0 | 0.02 | 0.74 | 0.28 | 67 | 1009.8 |
| 20260506120534 | 60 | 180 | 2.0 | 7.0 | 0.02 | 0.75 | 0.28 | 67 | 1009.8 |
| 20260506120038 | 60 | 241 | 1.0 | 11.0 | 0.02 | 0.75 | 0.28 | 66 | 1009.8 |
| 20260506115901 | 60 | 168 | 3.0 | 12.0 | 0.02 | 0.74 | 0.28 | 67 | 1009.8 |
| 20260506115850 | 60 | 228 | 6.0 | 12.0 | 0.02 | 0.75 | 0.28 | 67 | 1009.8 |
| 20260506115626 | 60 | 221 | 5.0 | 11.0 | 0.02 | 0.74 | 0.28 | 67 | 1009.9 |
| 20260506114033 | 59 | 209 | 5.0 | 11.0 | 0.02 | 0.76 | 0.28 | 67 | 1009.9 |
| 20260506113737 | 59 | 142 | 7.0 | 13.0 | 0.01 | 0.76 | 0.27 | 66 | 1009.8 |
| 20260506113552 | 60 | 176 | 3.0 | 13.0 | 0.01 | 0.76 | 0.27 | 66 | 1010.0 |
| 20260506112529 | 59 | 219 | 5.0 | 11.0 | 0.01 | 0.76 | 0.27 | 66 | 1009.8 |
| 20260506112029 | 59 | 159 | 5.0 | 10.0 | 0.01 | 0.76 | 0.27 | 66 | 1009.9 |
| 20260506111529 | 59 | 154 | 5.0 | 12.0 | 0.02 | 0.76 | 0.27 | 66 | 1010.0 |
| 20260506111124 | 60 | 169 | 4.0 | 9.0 | 0.02 | 0.76 | 0.27 | 65 | 1010.0 |
| 20260506111044 | 59 | 162 | 6.0 | 12.0 | 0.02 | 0.76 | 0.27 | 66 | 1010.0 |
| 20260506110026 | 59 | 164 | 2.0 | 11.0 | 0.01 | 0.76 | 0.26 | 65 | 1010.0 |
| 20260506105523 | 59 | 207 | 2.0 | 11.0 | 0.02 | 0.76 | 0.26 | 65 | 1010.0 |
| 20260506105453 | 59 | 178 | 3.0 | 7.0 | 0.03 | 0.76 | 0.26 | 65 | 1010.0 |
| 20260506105140 | 59 | 186 | 2.0 | 9.0 | 0.02 | 0.76 | 0.26 | 65 | 1010.2 |
| 20260506104533 | 59 | 148 | 4.0 | 9.0 | 0.02 | 0.76 | 0.26 | 65 | 1010.2 |
| 20260506103510 | 59 | 86 | 1.0 | 7.0 | 0.03 | 0.76 | 0.26 | 65 | 1010.1 |
| 20260506103008 | 59 | 168 | 4.0 | 7.0 | 0.04 | 0.76 | 0.26 | 65 | 1010.2 |
| 20260506102504 | 59 | 158 | 2.0 | 5.0 | 0.04 | 0.76 | 0.26 | 65 | 1010.2 |
| 20260506102005 | 59 | 337 | 1.0 | 4.0 | 0.04 | 0.76 | 0.25 | 65 | 1010.2 |
| 20260506101505 | 59 | 154 | 1.0 | 6.0 | 0.04 | 0.76 | 0.25 | 65 | 1010.3 |
| 20260506101001 | 59 | 110 | 2.0 | 7.0 | 0.04 | 0.76 | 0.25 | 65 | 1010.4 |
| 20260506100633 | 59 | 82 | 2.0 | 6.0 | 0.05 | 0.71 | 0.24 | 65 | 1010.5 |
| 20260506100521 | 59 | 226 | 2.0 | 7.0 | 0.05 | 0.76 | 0.25 | 65 | 1010.6 |
| 20260506095457 | 58 | 196 | 1.0 | 5.0 | 0.04 | 0.71 | 0.24 | 65 | 1010.6 |
| 20260506094952 | 58 | 137 | 1.0 | 6.0 | 0.03 | 0.71 | 0.24 | 65 | 1010.6 |
| 20260506094506 | 58 | 235 | 2.0 | 6.0 | 0.03 | 0.71 | 0.24 | 65 | 1010.6 |
| 20260506093948 | 58 | 134 | 1.0 | 5.0 | 0.02 | 0.71 | 0.23 | 65 | 1010.6 |
| 20260506093450 | 58 | 158 | 2.0 | 5.0 | 0.02 | 0.71 | 0.22 | 65 | 1010.6 |
| 20260506092951 | 58 | 107 | 0.0 | 3.0 | 0.02 | 0.71 | 0.22 | 65 | 1010.6 |
| 20260506092444 | 58 | 107 | 0.0 | 5.0 | 0.02 | 0.71 | 0.22 | 65 | 1010.6 |
| 20260506091942 | 58 | 107 | 2.0 | 6.0 | 0.01 | 0.71 | 0.21 | 65 | 1010.6 |
| 20260506091935 | 58 | 109 | 3.0 | 10.0 | 0.00 | 0.71 | 0.20 | 65 | 1010.6 |
| 20260506091558 | 58 | 90 | 4.0 | 7.0 | 0.01 | 0.71 | 0.21 | 65 | 1010.6 |
| 20260506091006 | 58 | 62 | 3.0 | 9.0 | 0.01 | 0.71 | 0.21 | 65 | 1010.6 |
| 20260506085941 | 58 | 69 | 4.0 | 11.0 | 0.00 | 0.71 | 0.20 | 65 | 1010.5 |
| 20260506085436 | 58 | 114 | 4.0 | 11.0 | 0.00 | 0.71 | 0.20 | 65 | 1010.5 |
| 20260506084935 | 58 | 79 | 5.0 | 10.0 | 0.00 | 0.71 | 0.20 | 65 | 1010.5 |
| 20260506084439 | 58 | 104 | 5.0 | 12.0 | 0.00 | 0.71 | 0.20 | 65 | 1010.5 |
| 20260506084430 | 58 | 73 | 6.0 | 11.0 | 0.01 | 0.71 | 0.20 | 65 | 1010.2 |
| 20260506084044 | 58 | 89 | 6.0 | 13.0 | 0.01 | 0.71 | 0.20 | 65 | 1010.4 |
| 20260506083501 | 58 | 107 | 7.0 | 13.0 | 0.01 | 0.71 | 0.20 | 65 | 1010.4 |
| 20260506082431 | 58 | 104 | 4.0 | 10.0 | 0.01 | 0.71 | 0.20 | 65 | 1010.2 |
| 20260506081935 | 58 | 96 | 5.0 | 9.0 | 0.01 | 0.71 | 0.20 | 65 | 1010.1 |
| 20260506081426 | 58 | 107 | 4.0 | 6.0 | 0.01 | 0.71 | 0.20 | 65 | 1010.2 |
| 20260506080925 | 58 | 58 | 3.0 | 10.0 | 0.01 | 0.71 | 0.20 | 65 | 1010.0 |
| 20260506080427 | 58 | 79 | 4.0 | 10.0 | 0.02 | 0.71 | 0.20 | 65 | 1010.2 |
| 20260506072921 | 57 | 11 | 2.0 | 4.0 | 0.13 | 0.68 | 0.20 | 66 | 1010.3 |
| 20260506072419 | 57 | 0 | 1.0 | 3.0 | 0.13 | 0.68 | 0.20 | 66 | 1010.3 |
| 20260506072122 | 56 | 0 | 2.0 | 4.0 | 0.13 | 0.68 | 0.20 | 65 | 1010.3 |
| 20260506071947 | 56 | 0 | 2.0 | 4.0 | 0.13 | 0.68 | 0.20 | 66 | 1010.4 |
| 20260506070916 | 56 | 35 | 3.0 | 4.0 | 0.13 | 0.68 | 0.19 | 66 | 1010.3 |
| 20260506070418 | 56 | 30 | 2.0 | 4.0 | 0.13 | 0.68 | 0.19 | 66 | 1010.3 |
| 20260506062435 | 57 | 41 | 3.0 | 4.0 | 0.00 | 0.57 | 0.06 | 66 | 1010.6 |
| 20260506061820 | 57 | 71 | 0.0 | 0.0 | 0.00 | 0.57 | 0.06 | 66 | 1010.4 |
| 20260506061743 | 56 | 65 | 0.0 | 0.0 | 0.00 | 0.57 | 0.06 | 65 | 1010.4 |
| 20260506061513 | 57 | 72 | 4.0 | 5.0 | 0.00 | 0.57 | 0.06 | 66 | 1010.4 |
| 20260506050948 | 56 | 10 | 0.0 | 0.0 | 0.00 | 0.57 | 0.06 | 66 | 1010.4 |
| 20260506050719 | 56 | 10 | 0.0 | 2.0 | 0.00 | 0.57 | 0.06 | 66 | 1010.4 |
| 20260506050522 | 56 | 10 | 0.0 | 2.0 | 0.00 | 0.57 | 0.06 | 66 | 1010.5 |
| 20260506045006 | 55 | 11 | 0.0 | 0.0 | 0.00 | 0.57 | 0.06 | 66 | 1010.4 |
| 20260506043941 | 55 | 35 | 0.0 | 4.0 | 0.00 | 0.57 | 0.06 | 66 | 1010.5 |
| 20260506043601 | 55 | 0 | 3.0 | 5.0 | 0.00 | 0.57 | 0.06 | 66 | 1010.4 |
| 20260506043502 | 55 | 38 | 0.0 | 5.0 | 0.00 | 0.57 | 0.06 | 66 | 1010.3 |
| 20260506042439 | 55 | 348 | 1.0 | 2.0 | 0.00 | 0.57 | 0.06 | 66 | 1010.5 |
| 20260506041939 | 55 | 1 | 0.0 | 0.0 | 0.00 | 0.57 | 0.06 | 66 | 1010.6 |
| 20260506041439 | 55 | 1 | 0.0 | 0.0 | 0.00 | 0.57 | 0.06 | 66 | 1010.5 |
| 20260506040941 | 55 | 1 | 0.0 | 0.0 | 0.00 | 0.57 | 0.06 | 66 | 1010.6 |
| 20260506040840 | 55 | 1 | 0.0 | 0.0 | 0.00 | 0.57 | 0.06 | 66 | 1010.8 |
| 20260506040540 | 55 | 1 | 0.0 | 0.0 | 0.00 | 0.57 | 0.06 | 66 | 1010.8 |
| 20260506040001 | 55 | 1 | 0.0 | 0.0 | 0.00 | 0.57 | 0.06 | 66 | 1010.8 |
| 20260506034936 | 55 | 1 | 0.0 | 0.0 | 0.00 | 0.57 | 0.06 | 66 | 1010.8 |
| 20260506034431 | 55 | 1 | 0.0 | 0.0 | 0.00 | 0.57 | 0.06 | 66 | 1010.8 |
| 20260506033932 | 55 | 1 | 0.0 | 0.0 | 0.00 | 0.57 | 0.06 | 66 | 1010.8 |
| 20260506033431 | 55 | 1 | 0.0 | 0.0 | 0.00 | 0.57 | 0.06 | 66 | 1011.0 |
| 20260506032932 | 55 | 1 | 0.0 | 0.0 | 0.00 | 0.57 | 0.06 | 66 | 1010.9 |
| 20260506032429 | 55 | 1 | 0.0 | 0.0 | 0.00 | 0.57 | 0.06 | 66 | 1010.8 |
| 20260506031929 | 55 | 1 | 0.0 | 0.0 | 0.00 | 0.57 | 0.06 | 66 | 1010.8 |
| 20260506031640 | 55 | 1 | 0.0 | 0.0 | 0.00 | 0.57 | 0.06 | 66 | 1011.0 |
| 20260506031456 | 55 | 1 | 0.0 | 0.0 | 0.00 | 0.57 | 0.06 | 66 | 1010.9 |
| 20260506030616 | 55 | 1 | 0.0 | 0.0 | 0.00 | 0.57 | 0.06 | 66 | 1010.9 |
| 20260506030450 | 55 | 1 | 0.0 | 0.0 | 0.00 | 0.57 | 0.06 | 66 | 1011.0 |
| 20260506025424 | 55 | 1 | 0.0 | 0.0 | 0.00 | 0.57 | 0.06 | 66 | 1011.0 |
| 20260506025102 | 56 | 1 | 0.0 | 0.0 | 0.00 | 0.57 | 0.06 | 66 | 1011.1 |
| 20260506024938 | 55 | 1 | 0.0 | 0.0 | 0.00 | 0.57 | 0.06 | 66 | 1011.1 |
| 20260506023923 | 56 | 1 | 0.0 | 0.0 | 0.00 | 0.57 | 0.06 | 66 | 1011.2 |
| 20260506023413 | 55 | 1 | 0.0 | 0.0 | 0.00 | 0.57 | 0.06 | 66 | 1011.2 |
| 20260506022938 | 55 | 1 | 0.0 | 0.0 | 0.00 | 0.57 | 0.06 | 66 | 1011.3 |
| 20260506022917 | 55 | 1 | 0.0 | 0.0 | 0.00 | 0.57 | 0.06 | 66 | 1011.3 |
| 20260506022549 | 55 | 1 | 0.0 | 0.0 | 0.00 | 0.57 | 0.06 | 66 | 1011.3 |
| 20260506022152 | 55 | 1 | 0.0 | 0.0 | 0.00 | 0.57 | 0.06 | 66 | 1011.3 |
| 20260506021959 | 55 | 1 | 0.0 | 0.0 | 0.00 | 0.57 | 0.06 | 66 | 1011.4 |
| 20260506020401 | 55 | 1 | 0.0 | 0.0 | 0.00 | 0.57 | 0.06 | 66 | 1011.3 |
| 20260506015859 | 55 | 1 | 0.0 | 0.0 | 0.00 | 0.57 | 0.06 | 66 | 1011.3 |
| 20260506015401 | 55 | 1 | 0.0 | 0.0 | 0.00 | 0.57 | 0.06 | 66 | 1011.4 |
| 20260506014900 | 55 | 1 | 0.0 | 0.0 | 0.00 | 0.57 | 0.06 | 66 | 1011.5 |
| 20260506014358 | 55 | 1 | 0.0 | 0.0 | 0.00 | 0.57 | 0.06 | 66 | 1011.5 |
| 20260506013858 | 56 | 1 | 0.0 | 0.0 | 0.00 | 0.57 | 0.06 | 66 | 1011.4 |
| 20260506013357 | 56 | 1 | 0.0 | 0.0 | 0.00 | 0.57 | 0.06 | 66 | 1011.3 |
| 20260506012858 | 55 | 1 | 0.0 | 3.0 | 0.00 | 0.57 | 0.06 | 66 | 1011.2 |
| 20260506012355 | 55 | 1 | 0.0 | 3.0 | 0.00 | 0.57 | 0.06 | 66 | 1011.3 |
| 20260506011850 | 55 | 1 | 1.0 | 2.0 | 0.01 | 0.57 | 0.06 | 66 | 1011.3 |
| 20260506011351 | 56 | 1 | 0.0 | 0.0 | 0.01 | 0.57 | 0.06 | 66 | 1011.3 |
| 20260506011133 | 55 | 1 | 0.0 | 0.0 | 0.06 | 0.57 | 0.06 | 66 | 1011.3 |
| 20260506010929 | 55 | 1 | 0.0 | 0.0 | 0.02 | 0.57 | 0.06 | 66 | 1011.3 |
| 20260506005847 | 55 | 1 | 0.0 | 0.0 | 0.06 | 0.50 | 0.06 | 66 | 1011.3 |
| 20260506005348 | 55 | 1 | 0.0 | 0.0 | 0.06 | 0.50 | 0.06 | 66 | 1011.3 |
| 20260506004850 | 55 | 1 | 0.0 | 0.0 | 0.06 | 0.50 | 0.06 | 66 | 1011.3 |
| 20260506004348 | 55 | 1 | 0.0 | 0.0 | 0.06 | 0.50 | 0.06 | 66 | 1011.3 |
| 20260506003848 | 55 | 1 | 0.0 | 0.0 | 0.06 | 0.50 | 0.06 | 66 | 1011.3 |
| 20260506003347 | 55 | 1 | 0.0 | 0.0 | 0.06 | 0.50 | 0.06 | 66 | 1011.4 |
| 20260506003140 | 55 | 1 | 0.0 | 0.0 | 0.06 | 0.50 | 0.06 | 66 | 1011.4 |
| 20260506002925 | 55 | 1 | 0.0 | 0.0 | 0.06 | 0.50 | 0.06 | 66 | 1011.4 |
| 20260506001842 | 55 | 1 | 0.0 | 3.0 | 0.06 | 0.50 | 0.06 | 66 | 1011.4 |
| 20260506001343 | 55 | 1 | 0.0 | 3.0 | 0.06 | 0.50 | 0.06 | 66 | 1011.5 |
| 20260506000836 | 55 | 1 | 1.0 | 2.0 | 0.03 | 0.50 | 0.02 | 66 | 1011.5 |
| 20260506000335 | 55 | 1 | 0.0 | 0.0 | 0.00 | 0.50 | 0.00 | 66 | 1011.6 |
| 20260505235834 | 55 | 1 | 0.0 | 0.0 | 0.00 | 0.50 | 0.00 | 66 | 1011.6 |
| 20260505235330 | 55 | 3 | 0.0 | 0.0 | 0.00 | 0.50 | 0.00 | 66 | 1011.7 |
| 20260505234832 | 55 | 3 | 0.0 | 0.0 | 0.00 | 0.50 | 0.00 | 66 | 1011.8 |
| 20260505234329 | 55 | 3 | 0.0 | 0.0 | 0.00 | 0.50 | 0.00 | 66 | 1011.8 |
| 20260505234052 | 55 | 1 | 0.0 | 2.0 | 0.00 | 0.50 | 0.00 | 66 | 1011.9 |
| 20260505233901 | 55 | 1 | 0.0 | 2.0 | 0.00 | 0.50 | 0.00 | 66 | 1011.9 |
| 20260505232823 | 55 | 1 | 1.0 | 2.0 | 0.00 | 0.50 | 0.00 | 66 | 1011.8 |
| 20260505232522 | 55 | 3 | 1.0 | 3.0 | 0.00 | 0.50 | 0.00 | 66 | 1011.9 |
| 20260505232345 | 55 | 3 | 0.0 | 2.0 | 0.00 | 0.50 | 0.00 | 66 | 1011.9 |
| 20260505231316 | 55 | 3 | 0.0 | 3.0 | 0.00 | 0.50 | 0.00 | 66 | 1012.0 |
| 20260505230816 | 55 | 3 | 1.0 | 2.0 | 0.00 | 0.50 | 0.00 | 66 | 1012.1 |
| 20260505230316 | 55 | 3 | 0.0 | 3.0 | 0.00 | 0.50 | 0.00 | 66 | 1012.1 |
| 20260505225813 | 55 | 3 | 1.0 | 3.0 | 0.00 | 0.50 | 0.00 | 66 | 1012.2 |
| 20260505225311 | 55 | 3 | 2.0 | 4.0 | 0.00 | 0.50 | 0.00 | 66 | 1012.1 |
| 20260505224807 | 55 | 3 | 2.0 | 4.0 | 0.00 | 0.50 | 0.00 | 66 | 1012.1 |
| 20260505224309 | 55 | 1 | 2.0 | 3.0 | 0.00 | 0.50 | 0.00 | 66 | 1012.1 |
| 20260505223810 | 55 | 1 | 2.0 | 3.0 | 0.00 | 0.50 | 0.00 | 66 | 1012.2 |
| 20260505223309 | 55 | 0 | 2.0 | 3.0 | 0.00 | 0.50 | 0.00 | 66 | 1012.2 |
| 20260505223158 | 55 | 4 | 2.0 | 4.0 | 0.00 | 0.50 | 0.00 | 66 | 1012.2 |
| 20260505222855 | 55 | 0 | 2.0 | 3.0 | 0.00 | 0.50 | 0.00 | 66 | 1012.2 |
| 20260505222324 | 55 | 0 | 2.0 | 3.0 | 0.00 | 0.50 | 0.00 | 66 | 1012.2 |
| 20260505221251 | 55 | 0 | 2.0 | 3.0 | 0.01 | 0.50 | 0.00 | 66 | 1012.3 |
| 20260505220749 | 55 | 0 | 2.0 | 3.0 | 0.01 | 0.50 | 0.00 | 66 | 1012.3 |
| 20260505220600 | 55 | 321 | 2.0 | 3.0 | 0.00 | 0.50 | 0.50 | 66 | 1012.2 |
| 20260505220322 | 55 | 0 | 2.0 | 3.0 | 0.01 | 0.50 | 0.00 | 66 | 1012.3 |
| 20260505215248 | 55 | 320 | 2.0 | 2.0 | 0.00 | 0.50 | 0.50 | 66 | 1012.2 |
| 20260505214946 | 55 | 319 | 1.0 | 3.0 | 0.02 | 0.50 | 0.50 | 66 | 1012.4 |
| 20260505214812 | 55 | 319 | 1.0 | 2.0 | 0.01 | 0.50 | 0.50 | 66 | 1012.3 |
| 20260505213750 | 55 | 317 | 2.0 | 3.0 | 0.03 | 0.50 | 0.50 | 66 | 1012.3 |
| 20260505213247 | 55 | 314 | 2.0 | 3.0 | 0.04 | 0.50 | 0.50 | 66 | 1012.5 |
| 20260505212746 | 55 | 312 | 2.0 | 3.0 | 0.04 | 0.50 | 0.50 | 66 | 1012.5 |
| 20260505212242 | 55 | 309 | 2.0 | 3.0 | 0.05 | 0.50 | 0.50 | 66 | 1012.5 |
| 20260505211743 | 55 | 307 | 1.0 | 2.0 | 0.06 | 0.50 | 0.50 | 66 | 1012.6 |
| 20260505210631 | 55 | 306 | 1.0 | 3.0 | 0.11 | 0.50 | 0.50 | 66 | 1012.5 |
| 20260505210131 | 55 | 306 | 1.0 | 3.0 | 0.12 | 0.50 | 0.50 | 66 | 1012.6 |
| 20260505210003 | 55 | 307 | 2.0 | 4.0 | 0.13 | 0.38 | 0.50 | 66 | 1012.8 |
| 20260505205947 | 55 | 16 | 0.0 | 2.0 | 0.13 | 0.38 | 0.49 | 66 | 1012.6 |
| 20260505205720 | 55 | 309 | 2.0 | 4.0 | 0.12 | 0.38 | 0.50 | 66 | 1012.6 |
| 20260505204130 | 55 | 16 | 0.0 | 2.0 | 0.11 | 0.38 | 0.47 | 66 | 1012.5 |
| 20260505203840 | 55 | 25 | 2.0 | 4.0 | 0.08 | 0.38 | 0.40 | 66 | 1012.5 |
| 20260505203811 | 55 | 25 | 1.0 | 3.0 | 0.11 | 0.38 | 0.43 | 66 | 1012.4 |
| 20260505203802 | 55 | 25 | 2.0 | 3.0 | 0.10 | 0.38 | 0.43 | 66 | 1012.4 |
| 20260505203648 | 55 | 16 | 1.0 | 3.0 | 0.12 | 0.38 | 0.46 | 66 | 1012.5 |
| 20260505203330 | 55 | 17 | 2.0 | 3.0 | 0.12 | 0.38 | 0.46 | 66 | 1012.4 |
| 20260505202730 | 55 | 25 | 0.0 | 3.0 | 0.11 | 0.38 | 0.45 | 66 | 1012.5 |
| 20260505200858 | 55 | 21 | 1.0 | 3.0 | 0.07 | 0.31 | 0.35 | 66 | 1012.5 |
| 20260505200821 | 55 | 21 | 2.0 | 3.0 | 0.06 | 0.31 | 0.38 | 66 | 1012.5 |
| 20260505200805 | 55 | 21 | 2.0 | 3.0 | 0.06 | 0.31 | 0.37 | 66 | 1012.6 |
| 20260505200643 | 55 | 23 | 3.0 | 4.0 | 0.06 | 0.38 | 0.39 | 66 | 1012.5 |
| 20260505200322 | 55 | 21 | 1.0 | 3.0 | 0.06 | 0.38 | 0.38 | 66 | 1012.5 |
| 20260505194648 | 55 | 21 | 0.0 | 2.0 | 0.06 | 0.31 | 0.36 | 66 | 1012.6 |
| 20260505193623 | 55 | 21 | 1.0 | 3.0 | 0.06 | 0.31 | 0.35 | 66 | 1012.6 |
| 20260505193121 | 55 | 20 | 2.0 | 3.0 | 0.05 | 0.31 | 0.34 | 66 | 1012.5 |
| 20260505192621 | 55 | 17 | 1.0 | 3.0 | 0.05 | 0.31 | 0.34 | 66 | 1012.5 |
| 20260505192259 | 55 | 17 | 2.0 | 3.0 | 0.04 | 0.31 | 0.32 | 66 | 1012.5 |
| 20260505192143 | 55 | 14 | 2.0 | 3.0 | 0.04 | 0.31 | 0.33 | 66 | 1012.5 |
| 20260505191118 | 55 | 17 | 2.0 | 3.0 | 0.04 | 0.31 | 0.32 | 66 | 1012.4 |
| 20260505190622 | 55 | 17 | 0.0 | 4.0 | 0.04 | 0.31 | 0.32 | 66 | 1012.5 |
| 20260505190341 | 54 | 17 | 1.0 | 3.0 | 0.04 | 0.28 | 0.31 | 66 | 1012.4 |
| 20260505190154 | 55 | 17 | 2.0 | 4.0 | 0.04 | 0.31 | 0.31 | 66 | 1012.4 |